Location: Bacea
(45.9500°N, 22.6667°E)
Time: 11:41:06
(UTC+00:00)

CSL-04 Debris - Pass Details

Date: 16 October 2021
Orbit: 827 x 847 km, 98.9° (Epoch: 03 December)

Event Time Altitude Azimuth Distance (km) Brightness Sun altitude
Exits shadow 17:26:56 20° 146° (SE) 1,827 5.6 -19.1°
Maximum altitude 17:30:38 62° 71° (ENE) 931 4.1 -19.7°
Drops below altitude 10° 17:35:59 10° 352° (N) 2,448 6.8 -20.6°
Sets 17:38:22 0° 349° (N) 3,389 7.6 -21.0°
